TimeCDT,TemperatureF,Dew PointF,Humidity,Sea Level PressureIn,VisibilityMPH,Wind Direction,Wind SpeedMPH,Gust SpeedMPH,PrecipitationIn,Events,Conditions,WindDirDegrees,DateUTC
12:53 AM,84.0,53.1,34,29.85,10.0,SE,11.5,-,N/A,,Clear,130,2013-07-07 05:53:00
1:53 AM,82.0,55.0,39,29.85,10.0,SE,9.2,-,N/A,,Clear,130,2013-07-07 06:53:00
2:53 AM,78.1,55.0,45,29.85,10.0,ESE,8.1,-,N/A,,Clear,120,2013-07-07 07:53:00
3:53 AM,75.9,55.9,50,29.85,10.0,ESE,8.1,-,N/A,,Clear,110,2013-07-07 08:53:00
4:53 AM,73.0,57.0,57,29.85,10.0,East,8.1,-,N/A,,Clear,100,2013-07-07 09:53:00
5:53 AM,72.0,57.0,59,29.86,10.0,ESE,8.1,-,N/A,,Clear,110,2013-07-07 10:53:00
6:53 AM,72.0,57.0,59,29.88,10.0,East,6.9,-,N/A,,Clear,80,2013-07-07 11:53:00
7:53 AM,75.9,59.0,56,29.90,10.0,ESE,6.9,-,N/A,,Clear,120,2013-07-07 12:53:00
8:53 AM,82.9,60.1,46,29.91,10.0,South,13.8,-,N/A,,Clear,180,2013-07-07 13:53:00
9:53 AM,88.0,61.0,40,29.92,10.0,South,12.7,-,N/A,,Clear,190,2013-07-07 14:53:00
10:53 AM,91.0,61.0,36,29.91,10.0,South,10.4,-,N/A,,Clear,190,2013-07-07 15:53:00
11:53 AM,93.9,59.0,31,29.90,10.0,SSW,13.8,-,N/A,,Clear,200,2013-07-07 16:53:00
12:53 PM,93.0,59.0,32,29.89,10.0,SW,10.4,-,N/A,,Clear,220,2013-07-07 17:53:00
1:53 PM,97.0,57.9,27,29.88,10.0,SSE,11.5,21.9,N/A,,Clear,160,2013-07-07 18:53:00
2:53 PM,96.1,59.0,29,29.87,10.0,Variable,5.8,-,N/A,,Clear,0,2013-07-07 19:53:00
3:53 PM,98.1,57.9,26,29.86,10.0,SSE,11.5,20.7,N/A,,Clear,150,2013-07-07 20:53:00
4:53 PM,98.1,55.9,24,29.85,10.0,ESE,15.0,23.0,N/A,,Scattered Clouds,120,2013-07-07 21:53:00
5:53 PM,97.0,54.0,23,29.84,10.0,SSE,9.2,20.7,N/A,,Clear,160,2013-07-07 22:53:00
6:53 PM,97.0,55.0,24,29.84,10.0,SE,16.1,-,N/A,,Clear,130,2013-07-07 23:53:00
7:53 PM,93.9,55.0,27,29.85,10.0,SE,16.1,-,N/A,,Clear,130,2013-07-08 00:53:00
8:53 PM,90.0,55.9,31,29.86,10.0,SE,12.7,-,N/A,,Clear,130,2013-07-08 01:53:00
9:53 PM,86.0,55.9,36,29.88,10.0,SE,9.2,-,N/A,,Clear,130,2013-07-08 02:53:00
10:53 PM,82.9,57.0,41,29.90,10.0,ESE,9.2,-,N/A,,Clear,120,2013-07-08 03:53:00
11:53 PM,79.0,57.9,48,29.90,10.0,ESE,8.1,-,N/A,,Clear,110,2013-07-08 04:53:00